Location: Shenandoah County Park
(38.9356°N, 78.4524°W)
Time: 13:54:11
(UTC-05:00)

Tiros 1 despin weight - Visible Passes

Search period start: 07 February 2023 00:00
Search period end: 17 February 2023 00:00
Orbit: 589 x 636 km, 48.2° (Epoch: 06 February)

Date Brightness Start Highest point End Pass type
(mag) Time Alt. Az. Time Alt. Az. Time Alt. Az.
07 Feb ? 19:20:54 10° NW 19:25:12 41° NNE 19:25:34 40° NE visible
07 Feb ? 21:02:22 10° WNW 21:02:31 11° WNW 21:02:31 11° WNW visible
08 Feb ? 19:35:34 10° NW 19:39:57 63° NNE 19:39:57 63° NNE visible
09 Feb ? 18:08:54 10° NW 18:13:03 33° NNE 18:17:08 10° E visible
09 Feb ? 19:50:17 10° WNW 19:54:26 70° W 19:54:26 70° W visible
10 Feb ? 18:23:36 10° NW 18:28:00 46° NNE 18:32:04 11° E visible
10 Feb ? 20:05:11 10° WNW 20:09:02 39° SW 20:09:02 39° SW visible
11 Feb ? 18:38:15 10° NW 18:42:49 75° NNE 18:46:49 13° ESE visible
11 Feb ? 20:20:29 10° W 20:23:48 21° SW 20:23:48 21° SW visible
12 Feb ? 18:53:00 10° WNW 18:57:30 63° SW 19:01:45 11° SE visible
12 Feb ? 20:37:48 10° WSW 20:38:11 10° SW 20:38:34 10° SW visible
13 Feb ? 19:07:57 10° WNW 19:12:02 33° SW 19:16:02 10° SSE visible
14 Feb ? 19:23:28 10° W 19:26:26 17° SW 19:29:22 10° S visible
16 Feb ? 18:10:43 10° WNW 18:14:35 27° SW 18:18:23 10° SSE visible
